User: anonymous   Login
Location: Cutler
(25.6150°N, 80.3110°W)
Time: 20:27:52
(UTC-04:00)
Language:

Cosmos 2360 Rocket - Orbit

View from above orbital plane
View from above orbital plane
View from above satellite
View from above satellite

Ground track
Ground track

The orbit data is extracted from the following two-line orbital elements,

1 25407U 98045B   15242.83464208 -.00000179  00000-0 -66971-4 0  9995
2 25407 071.0135 340.6918 0006126 139.8820 220.2756 14.15719590883289
Epoch (UTC): 30 August 2015 20:01:53
Eccentricity: 0.0006126
inclination: 71.0135°
perigee height: 835 km
apogee height: 844 km
right ascension of ascending node: 340.6918°
argument of perigee: 139.8820°
revolutions per day: 14.15719590
mean anomaly at epoch: 220.2756°
orbit number at epoch: 88328

The dashed part of the orbit path shows where the satellite is in the earth's shadow,  

DLR